Temp
21 20 20 20 20 19 19 19 20 20 19 20 20 19 19 20 18 19 18 17 17 17 17 16 16 16 16 16 16 16 16 16
22 21 19 18 17 18 19 18 19 19 19 19 19 19 19 19 18 19 18 19 17 17 16 16 15 16 16 16 16 16 16 16
21 21 19 18 18 17 18 18 18 19 18 19 19 18 18 18 18 18 19 19 17 17 16 16 15 16 16 16 15 15 15 15
20 20 19 18 18 18 17 18 18 18 17 18 18 18 16 17 18 17 18 18 17 17 16 15 15 15 15 15 15 14 15 15
20 19 19 18 18 18 17 18 17 17 17 17 17 17 17 16 16 16 16 17 16 16 15 15 15 15 14 14 14 14 14 14
20 19 19 18 18 18 17 17 17 17 17 16 16 16 16 15 15 15 15 15 15 15 15 14 14 14 14 14 14 14 14 14
21 20 19 18 18 17 17 16 18 17 17 16 16 15 15 16 15 15 15 15 15 15 14 14 14 14 14 14 13 13 14 14
20 20 19 19 18 18 17 17 16 17 16 16 16 15 15 15 15 15 15 15 14 14 15 15 14 14 14 13 13 14 13 13
20 20 19 19 18 18 17 17 16 16 16 16 15 15 15 16 15 15 14 15 14 14 14 15 14 14 14 13 14 13 13 13
20 18 16 18 18 18 17 17 16 15 16 14 15 15 14 14 14 14 14 14 14 14 14 14 14 14 14 14 13 13 13 13
19 17 16 17 17 17 17 17 16 14 14 14 14 14 14 14 14 14 14 14 14 13 14 14 14 14 14 13 13 13 12 13
18 16 15 16 16 16 15 14 14 14 14 14 14 14 14 14 14 14 14 13 13 13 14 14 14 14 14 13 13 13 12 13
16 15 15 15 14 14 14 13 13 13 13 13 13 14 14 14 14 14 13 13 13 13 13 13 13 14 13 12 12 12 12 12
15 15 14 15 15 14 14 14 14 14 14 14 14 14 14 14 14 13 13 13 12 13 14 14 14 13 15 15 14 13 12 12
15 15 14 15 15 14 14 14 14 14 14 14 14 14 13 13 14 13 12 12 12 13 13 14 14 13 14 17 15 16 14 12
15 14 14 14 14 15 14 14 14 14 14 14 14 13 13 13 13 13 12 12 12 13 13 14 13 13 13 14 16 15 17 14
15 14 14 14 14 14 15 14 14 14 14 14 13 13 12 13 13 13 12 12 13 13 13 14 14 14 14 14 14 14 15 16
14 14 13 14 14 14 14 14 14 14 14 14 14 13 13 13 13 13 13 12 13 13 13 13 14 14 15 15 15 16 16 16
13 13 13 13 14 14 14 14 14 14 14 14 14 13 13 13 13 13 13 13 13 13 13 13 14 14 14 14 15 16 16 15
13 13 13 13 13 13 13 14 14 14 14 14 14 14 14 13 13 13 13 13 13 13 13 13 13 14 14 14 16 16 17 16
Height
758 760 760 763 765 771 777 780 781 783 785 788 792 793 797 794 805 808 817 819 817 824 826 828 832 834 836 838 841 842 846 849
755 758 761 762 764 766 773 779 782 785 785 787 791 794 797 798 803 807 809 807 819 824 827 828 833 835 837 839 842 844 847 850
754 755 758 761 763 765 768 774 780 785 787 788 790 794 796 800 802 805 806 804 814 822 826 830 834 837 838 840 843 846 848 851
748 752 756 759 762 762 766 769 775 781 786 787 788 791 795 797 800 804 804 805 811 818 826 831 835 839 840 842 845 847 849 851
744 748 752 755 758 760 763 765 770 775 781 785 786 789 793 797 800 804 804 805 808 815 824 831 834 838 839 841 844 847 851 853
743 746 748 750 753 757 759 763 766 770 776 781 784 786 788 793 797 800 802 805 809 814 821 829 833 836 838 841 844 848 851 854
738 741 744 747 750 753 756 759 763 765 770 776 780 782 785 786 792 795 798 802 807 811 817 825 831 834 838 842 845 848 850 854
731 733 736 740 744 748 752 755 759 763 764 768 773 776 780 784 787 792 795 799 806 809 812 822 830 834 838 842 845 848 852 854
720 723 728 732 736 741 746 750 753 758 760 763 766 770 774 777 781 786 792 795 802 809 813 821 828 833 838 842 845 848 853 855
713 714 717 723 728 734 739 744 746 751 754 758 761 764 769 774 778 782 785 791 798 805 810 819 826 832 836 841 845 848 853 855
705 706 709 714 722 728 733 738 741 745 749 752 756 760 763 768 772 775 779 786 793 801 808 815 823 830 836 839 845 847 853 854
697 700 703 709 716 722 729 734 737 741 744 747 751 755 759 762 766 765 773 782 791 798 805 813 819 827 834 840 845 847 852 855
692 695 698 703 708 715 723 728 733 736 739 743 747 750 753 754 750 759 767 775 784 793 801 808 818 825 832 841 844 847 851 853
692 693 696 699 703 709 715 723 729 732 735 738 740 743 745 745 747 748 760 771 780 787 794 804 814 820 825 834 841 849 850 851
688 690 694 697 702 707 714 721 726 729 730 733 735 735 737 738 740 747 754 763 775 782 790 797 805 816 820 822 832 834 843 847
684 687 690 693 697 703 709 713 719 722 725 729 731 732 732 733 739 741 751 760 770 777 785 793 798 807 816 819 822 826 831 841
682 685 687 690 691 696 705 710 714 720 724 728 731 732 733 735 738 743 748 757 764 773 783 791 795 801 808 814 819 823 826 829
682 683 686 690 693 694 698 705 710 716 721 724 728 731 733 736 739 741 748 755 762 771 779 786 791 798 803 809 811 816 820 823
683 683 685 687 690 695 696 701 706 712 717 722 724 728 730 733 737 741 746 752 762 769 775 782 787 792 797 803 808 812 815 819
683 683 684 686 688 694 700 702 703 709 713 718 721 723 726 730 734 740 745 751 758 765 772 778 783 788 794 800 804 808 812 815
Wind_Speed
21 23 25 25 26 26 26 26 27 27 32 32 30 32 34 26 30 26 20 18 17 18 21 23 25 24 24 23 22 21 17 16
24 24 26 25 26 26 26 26 27 29 33 29 33 33 28 32 32 29 28 20 17 20 22 24 25 24 23 22 20 18 16 16
26 27 28 27 27 27 27 27 27 29 31 33 33 29 31 34 31 29 22 21 26 23 21 23 24 23 23 22 20 15 16 15
29 28 29 29 28 28 29 28 28 29 30 31 32 33 30 29 29 26 23 25 26 23 23 24 24 21 22 22 14 15 16 17
29 30 29 31 31 29 30 30 29 31 29 31 35 37 35 29 27 27 27 28 28 25 25 25 22 21 20 18 16 17 14 15
26 29 32 33 32 31 29 30 31 33 35 36 38 37 36 28 27 30 27 26 23 30 31 24 22 20 20 18 18 16 16 16
29 31 32 34 34 32 29 31 32 33 34 37 40 33 31 36 31 32 31 28 27 33 30 27 21 22 21 19 18 16 19 17
28 35 36 34 36 34 33 32 32 32 31 34 40 38 40 36 37 31 34 34 27 34 38 33 20 19 20 19 16 16 19 19
29 32 39 39 37 34 33 32 31 32 30 30 38 42 42 40 39 39 34 40 33 33 32 33 20 19 20 18 17 18 17 18
27 28 35 41 40 37 34 31 28 27 28 33 34 40 41 38 35 34 38 40 39 39 32 27 21 21 20 18 17 17 16 17
25 27 32 39 37 36 33 29 26 25 28 30 35 37 38 39 38 36 41 42 40 35 31 30 24 22 20 17 16 16 15 15
24 26 28 32 34 32 27 23 23 23 26 28 32 32 39 43 39 40 42 38 34 34 32 26 26 24 19 16 14 13 14 15
19 23 26 31 31 28 25 23 23 24 25 24 28 32 37 40 35 43 43 42 40 36 34 30 23 23 20 13 10 9 12 13
16 20 26 30 29 26 18 21 20 21 22 23 26 31 35 35 39 45 45 41 36 39 37 30 24 26 17 19 6 5 11 12
16 19 22 26 25 23 15 15 12 19 22 23 23 27 26 29 34 42 43 43 41 40 36 33 25 26 24 11 5 5 12 11
14 18 23 26 27 23 22 18 13 14 18 19 20 18 25 33 37 43 42 40 38 38 36 36 33 29 23 9 13 12 6 5
15 19 23 26 31 27 23 19 17 13 16 19 19 23 29 34 39 41 41 37 39 39 34 33 31 30 27 18 11 9 10 4
12 17 21 24 25 26 25 24 21 17 19 21 24 23 27 30 30 34 40 36 38 38 38 36 34 32 30 23 21 13 13 6
11 16 20 24 24 22 24 24 20 21 20 21 21 24 24 29 30 29 29 33 36 36 36 36 36 34 33 27 22 18 15 10
12 16 19 21 23 19 18 20 18 18 23 20 25 20 26 30 34 33 34 32 32 37 35 35 35 34 33 30 30 25 20 20
Wind_Direction
199 200 194 195 195 200 198 200 194 193 185 185 182 183 181 182 181 179 186 179 171 181 178 179 175 169 164 162 163 157 145 145
203 204 200 197 197 197 202 202 200 197 189 198 189 184 187 175 175 176 176 166 184 183 188 181 179 173 169 167 163 158 148 147
208 207 204 202 199 197 200 205 203 203 200 192 191 193 183 179 182 180 177 172 178 195 191 183 180 175 169 167 159 155 150 148
209 210 208 205 204 197 201 202 204 203 203 199 196 190 182 180 183 190 190 175 182 189 187 184 173 167 166 163 161 157 155 149
210 212 211 210 207 200 203 203 205 204 203 202 199 188 184 187 194 192 178 176 177 182 180 176 174 171 168 169 166 161 161 155
222 217 215 214 212 206 201 205 205 206 207 202 196 196 196 195 190 183 177 176 173 173 172 179 177 172 171 169 169 168 164 160
237 222 218 216 214 212 206 205 211 212 214 214 209 204 200 199 192 189 185 178 180 177 172 176 176 177 177 177 174 170 165 161
245 233 221 214 215 217 216 212 211 214 215 220 215 206 203 202 196 192 185 187 186 179 177 183 177 177 176 179 176 168 169 166
246 238 224 216 214 214 215 214 210 213 214 223 222 211 207 207 200 194 189 192 186 176 172 182 174 177 176 179 174 171 177 172
255 232 217 215 213 212 214 214 213 221 225 216 214 212 211 205 196 192 190 186 186 179 171 174 175 177 174 176 173 169 182 177
251 223 209 210 208 210 212 217 221 227 222 216 215 214 207 201 198 190 192 186 181 175 172 174 175 178 177 169 179 172 188 179
244 213 204 200 199 201 205 213 223 215 209 210 211 209 214 210 203 185 188 177 172 175 172 172 173 172 167 168 174 172 191 190
221 202 196 184 183 180 194 202 207 216 218 220 217 221 224 220 193 188 185 182 176 175 167 162 164 162 149 152 157 175 202 193
225 206 192 189 182 181 184 193 209 216 218 224 231 241 242 226 200 177 184 183 178 173 173 165 166 169 170 162 154 182 214 206
220 206 193 186 181 173 168 185 210 216 223 229 231 239 231 216 198 178 174 177 178 177 173 171 165 178 175 169 156 187 169 202
217 197 188 180 178 178 181 177 185 203 199 215 209 214 201 191 175 175 175 178 176 177 177 178 169 174 182 179 177 152 184 167
210 196 186 180 181 179 182 181 190 188 191 198 187 185 175 175 182 184 179 178 179 178 179 183 183 175 179 178 161 166 169 157
205 193 190 185 183 179 180 184 182 179 190 185 188 181 192 182 183 186 189 182 181 182 185 185 184 185 184 186 180 177 177 162
227 201 199 191 187 186 180 183 182 186 190 190 181 188 187 197 196 190 193 193 193 184 186 188 188 185 187 188 188 186 182 168
249 222 205 197 189 186 192 190 184 189 190 193 200 189 195 199 201 202 202 199 201 198 191 192 191 191 192 195 196 201 197 181